Regional Weather Roundup
Issued by NWS

Home | Current Version | Previous Version | Text Only | Print | Product List | Glossary Off
Versions: 1 2 3 4 5 6 7 8 9 10 11 12 13 14 15 16 17 18 19 20 21 22 23 24 25 26 27 28 29 30 31 32 33 34 35 36 37 38 39 40 41 42 43 44 45 46 47 48 49 50

000
ASUS43 KFSD 160202
RWRSD

WEATHER ROUNDUP FOR SOUTH DAKOTA
NATIONAL WEATHER SERVICE SIOUX FALLS SD
900 PM CDT TUE APR 15 2014

NOTE: "FAIR" INDICATES FEW OR NO CLOUDS BELOW 12,000 FEET WITH NO
SIGNIFICANT WEATHER AND/OR OBSTRUCTIONS TO VISIBILITY.


SDZ001>005-009-010-012>017-160300-
NORTHWEST AND NORTH CENTRAL SOUTH DAKOTA

CITY           SKY/WX    TMP DP  RH WIND       PRES   REMARKS
BUFFALO          N/A     54  24  31 N24G30    29.50R
MOBRIDGE       CLOUDY    43  21  41 E24G33    29.60S
$$

SDZ012>016-024>037-041>051-057-063-072>074-160300-
SOUTHWEST AND SOUTH CENTRAL SOUTH DAKOTA

CITY           SKY/WX    TMP DP  RH WIND       PRES   REMARKS
RAPID CTY ARPT CLOUDY    55  28  35 N8        29.52F
PIERRE         CLOUDY    52  28  39 SE16      29.54F
CUSTER         CLOUDY    49  20  31 VRB6      29.59S
ELLSWORTH AFB  CLOUDY    58  27  29 N14       29.53S
PHILIP         CLOUDY    54  23  30 E6        29.51S
PINE RIDGE     CLOUDY    52  25  35 S7        29.56F
WINNER         MOCLDY    58  27  30 SE6       29.57S
$$

SDZ004>011-016>023-039-040-160300-
NORTHEAST SOUTH DAKOTA

CITY           SKY/WX    TMP DP  RH WIND       PRES   REMARKS
ABERDEEN       CLOUDY    38  20  48 E22       29.78R
WATERTOWN      CLOUDY    38  20  48 E12G21    29.80S
SISSETON         N/A     34  14  43 SE15      29.89S WCI  24
$$

SDZ017-020-022-023-036>040-048>070-160300-
SOUTHEAST SOUTH DAKOTA

CITY           SKY/WX    TMP DP  RH WIND       PRES   REMARKS
SIOUX FALLS    CLOUDY    43  23  45 SE14G23   29.80F
HURON          MOCLDY    45  25  45 SE17G29   29.68F
CHAMBERLAIN      N/A     53  29  39 SE15      29.60R
MITCHELL       MOCLDY    48  30  49 SE21G29   29.69F
YANKTON        PTCLDY    46  27  46 SE18      29.75F
$$

ABBREVIATIONS USED IN REMARKS
   TC - TEMPERATURE IN CELSIUS
  WCI - WIND CHILL INDEX
   HX - HEAT INDEX
  VSB - VISIBILITY




USA.gov is the U.S. government's official web portal to all federal, state and local government web resources and services.